Location: Lombard
(41.8800°N, 88.0080°W)
Time: 14:10:16
(UTC-06:00)

Transit 4A - Pass Details

Date: 04 December 2023
Orbit: 870 x 973 km, 66.8° (Epoch: 03 March)

Event Time Altitude Azimuth Distance (km) Brightness Sun altitude
Rises 22:21:13 0° 274° (W) 3,663 - -64.1°
Reaches altitude 10° 22:25:27 10° 301° (WNW) 2,709 - -64.7°
Maximum altitude 22:28:20 13° 328° (NNW) 2,469 - -65.1°
Drops below altitude 10° 22:31:13 10° 356° (N) 2,691 - -65.4°
Sets 22:35:25 0° 23° (NNE) 3,618 - -65.9°
